Hauptseite
METAR-TAF:

METAR-TAF

Flughäfen :

Glücksburg, Deutschland

Meierwik

Breite: 54-50N, Länge: 009-30E, Höhe: 27 m

Beobachtung

Neuester Wetterbericht von vor 49 Minuten, um 18:20 UTC
Wind 7 kt aus Südost
Temperatur 5°C
Luftfeuchtigkeit 93%
Luftdruck 1007 hPa
Sichtweite 10 km oder mehr
Durchbrochene Bewölkung in der Höhe von 800 ft
Durchbrochene Bewölkung in der Höhe von 5000 ft

METAR: ETGG 211820Z 14007KT 9999 BKN008 BKN050 05/04 Q1007 GRN

Zeit: 20:09 (19:09 UTC)


TAF: fehlend

Wetterbeobachtungen und Prognosen von mehr als 4000 Flughäfen (METAR und TAF Bericht).

Die verfügbaren Stationen werden durch gelbe und rote Markierungen auf der Karte dargestellt.

Führen Sie die Maus auf sie, um den Namen der Station zu sehen.

Darauf klicken, um die Beobachtung von Wetterbeobachtungen und Prognosen zu sehen.

Um die Karte zu ändern : klicken Sie auf den grünen Tasten mit einem schwarzen Kreuz Zum Vergrößern, auf den grünen Button mit einem Gedankenstrich zu verkleinern, oder auf die grünen Pfeile für benachbarte Karten.


METAR-TAF: